Richmond, VA

4:30 PM EDT on July 23, 2016 (GMT -0400)
Richmond International

Weather History for KRIC - May, 2014

Change the Weather History Date:

Thursday, May 29, 2014

  Actual Average Record
Temperature  
Mean Temperature 64 °F 70 °F  
Max Temperature 68 °F 81 °F 98 °F (1941)
Min Temperature 60 °F 59 °F 37 °F (1936)
Degree Days  
Heating Degree Days 1 1  
Month to date heating degree days 20 72  
Since 1 July heating degree days 3780 3764  
Cooling Degree Days 0 6  
Month to date cooling degree days 173 104  
Year to date cooling degree days 202 146  
Growing Degree Days 12 (Base 50)    
Moisture  
Dew Point 60 °F    
Average Humidity 94    
Maximum Humidity 97    
Minimum Humidity 90    
Precipitation  
Precipitation T in 0.13 in 1.71 in (1984)
Month to date precipitation 2.43 3.52  
Year to date precipitation 16.03 16.63  
Snow  
Snow 0.00 in 0.00 in 0.00 in (2002)
Month to date snowfall 0.0 0.0  
Since 1 July snowfall 14.5 10.3  
Snow Depth 0.00 in    
Sea Level Pressure  
Sea Level Pressure 30.13 in    
Wind  
Wind Speed 6 mph (ENE)    
Max Wind Speed 16 mph    
Max Gust Speed 24 mph    
Visibility 2 miles    
Events Rain    
T = Trace of Precipitation, MM = Missing Value Source: NWS Daily Summary

Daily Weather History Graph

Daily Weather History Graph

Search for Another Location

Airport or City:

Trip Planner

Search our weather history database for the weather conditions in past years. The results will help you decide how hot, cold, wet, or windy it might be!

Date:

Astronomy

May. 29, 2014 Rise Set
Actual Time 5:51 AM EDT 8:22 PM EDT
Civil Twilight 5:20 AM EDT 8:53 PM EDT
Nautical Twilight 4:43 AM EDT 9:30 PM EDT
Astronomical Twilight 4:01 AM EDT 10:12 PM EDT
Moon 6:41 AM EDT (5/29) 9:12 PM EDT (5/29)
Length of Visible Light 15h 32m
Length of Day
14h 31m
New Moon, 1% of the Moon is Illuminated
May 29
New Moon
Jun 5
First Quarter
Jun 13
Full
Jun 19
Last Quarter
Jun 27
New

Hourly Weather History & Observations

Time (EDT) Temp. Dew Point Humidity Pressure Visibility Wind Dir Wind Speed Gust Speed Precip Events Conditions
12:32 AM 68.0 °F 66.2 °F 94% 30.03 in 4.0 mi East 6.9 mph - N/A   Overcast
12:54 AM 69.1 °F 66.9 °F 93% 30.05 in 2.5 mi NE 10.4 mph - N/A   Overcast
1:54 AM 64.4 °F 62.6 °F 94% 30.06 in 2.5 mi ENE 11.5 mph - N/A   Overcast
2:25 AM 62.6 °F 60.8 °F 94% 30.07 in 3.0 mi East 12.7 mph - N/A   Overcast
2:54 AM 63.0 °F 60.1 °F 90% 30.07 in 5.0 mi East 11.5 mph 18.4 mph N/A   Overcast
3:19 AM 62.6 °F 60.8 °F 94% 30.07 in 6.0 mi East 5.8 mph - N/A   Overcast
3:54 AM 62.1 °F 59.0 °F 90% 30.07 in 4.0 mi East 10.4 mph - N/A   Overcast
4:54 AM 62.1 °F 59.0 °F 90% 30.08 in 5.0 mi East 6.9 mph - 0.00 in   Overcast
5:54 AM 61.0 °F 59.0 °F 93% 30.09 in 2.5 mi ENE 8.1 mph - N/A   Overcast
6:40 AM 60.8 °F 59.0 °F 94% 30.10 in 1.5 mi ENE 6.9 mph - 0.00 in   Light Drizzle
6:54 AM 61.0 °F 57.9 °F 90% 30.11 in 1.2 mi ENE 8.1 mph - 0.00 in   Light Drizzle
7:10 AM 60.8 °F 57.2 °F 88% 30.10 in 1.2 mi NE 6.9 mph - 0.00 in   Light Drizzle
7:54 AM 60.1 °F 57.9 °F 93% 30.13 in 1.0 mi ENE 5.8 mph - 0.00 in   Light Drizzle
8:54 AM 61.0 °F 57.9 °F 90% 30.15 in 1.0 mi ENE 4.6 mph - 0.00 in   Light Drizzle
9:54 AM 62.1 °F 59.0 °F 90% 30.16 in 1.5 mi ENE 5.8 mph - 0.00 in   Light Drizzle
10:54 AM 62.1 °F 59.0 °F 90% 30.17 in 1.2 mi NE 6.9 mph - 0.00 in   Light Drizzle
11:52 AM 62.6 °F 59.0 °F 88% 30.17 in 1.5 mi NE 4.6 mph - 0.00 in   Overcast
11:54 AM 62.1 °F 59.0 °F 90% 30.19 in 1.5 mi ENE 4.6 mph - 0.00 in   Overcast
12:28 PM 62.6 °F 60.8 °F 94% 30.17 in 1.2 mi NE 5.8 mph - N/A   Overcast
12:54 PM 63.0 °F 60.1 °F 90% 30.18 in 1.2 mi NE 6.9 mph - 0.00 in   Light Drizzle
1:54 PM 63.0 °F 60.1 °F 90% 30.18 in 1.2 mi East 6.9 mph - 0.00 in   Light Drizzle
2:28 PM 64.4 °F 60.8 °F 88% 30.16 in 2.5 mi East 5.8 mph - 0.00 in   Overcast
2:54 PM 63.0 °F 60.1 °F 90% 30.17 in 2.5 mi ENE 5.8 mph - 0.00 in Rain Light Rain
3:54 PM 63.0 °F 60.1 °F 90% 30.15 in 2.5 mi NE 8.1 mph - N/A   Overcast
4:03 PM 62.6 °F 60.8 °F 94% 30.14 in 1.5 mi NE 6.9 mph - 0.00 in   Light Drizzle
4:54 PM 62.6 °F 60.8 °F 94% 30.12 in 2.0 mi ENE 6.9 mph - N/A   Overcast
5:05 PM 62.6 °F 60.8 °F 94% 30.12 in 2.0 mi ENE 8.1 mph - N/A   Overcast
6:54 PM 62.1 °F 60.1 °F 93% 30.13 in 1.5 mi East 5.8 mph - 0.00 in   Light Drizzle
7:54 PM 62.1 °F 60.1 °F 93% 30.14 in 2.0 mi ESE 3.5 mph - 0.00 in   Overcast
8:54 PM 62.1 °F 59.0 °F 90% 30.14 in 2.5 mi SE 6.9 mph - 0.00 in   Light Drizzle
9:54 PM 62.1 °F 59.0 °F 90% 30.14 in 3.0 mi ESE 4.6 mph - 0.00 in   Overcast
10:40 PM 62.6 °F 59.0 °F 88% 30.13 in 4.0 mi SE 5.8 mph - N/A   Overcast
10:54 PM 62.1 °F 59.0 °F 90% 30.15 in 3.0 mi ESE 4.6 mph - N/A   Overcast
11:15 PM 60.8 °F 59.0 °F 94% 30.13 in 3.0 mi SE 5.8 mph - N/A   Overcast
11:54 PM 62.1 °F 59.0 °F 90% 30.14 in 3.0 mi East 3.5 mph - N/A   Overcast